Location: Banska Bystrica
(0.0000°N, 19.1500°E)
Time: 04:26:44
(UTC+02:00)

YAOGAN 6 - Pass Details

Date: 19 February 2019
Orbit: 466 x 505 km, 97.0° (Epoch: 20 October)

Event Time Altitude Azimuth Distance (km) Brightness Sun altitude
Rises 18:50:32 0° 160° (SSE) 2,509 6.1 -13.1°
Reaches altitude 10° 18:52:38 10° 153° (SSE) 1,634 5.1 -13.6°
Maximum altitude 18:56:00 46° 79° (E) 650 2.7 -14.4°
Drops below altitude 10° 18:59:24 10° 5° (N) 1,646 5.1 -15.2°
Sets 19:01:31 0° 359° (N) 2,529 6.1 -15.8°
